| time (UTC) | temp F | wind direction | speed MPH | gust MPH | rain 1hr in | rain 24hr in | rain mn in | humidity % | barometer mb |
| 20260508060020 | 44 | 51 | 1.0 | 6.0 | 0.00 | 0.18 | 0.02 | 91 | 1019.4 |
| 20260508055545 | 44 | 355 | 2.0 | 6.0 | 0.00 | 0.18 | 0.02 | 91 | 1019.3 |
| 20260508055100 | 44 | 22 | 1.0 | 6.0 | 0.00 | 0.18 | 0.02 | 91 | 1019.4 |
| 20260508054514 | 44 | 11 | 2.0 | 6.0 | 0.00 | 0.18 | 0.02 | 91 | 1019.4 |
| 20260508054031 | 44 | 11 | 0.0 | 4.0 | 0.00 | 0.18 | 0.02 | 91 | 1019.4 |
| 20260508053550 | 44 | 17 | 0.0 | 4.0 | 0.00 | 0.18 | 0.02 | 91 | 1019.3 |
| 20260508053011 | 44 | 17 | 1.0 | 5.0 | 0.00 | 0.18 | 0.02 | 91 | 1019.3 |
| 20260508052528 | 44 | 26 | 2.0 | 5.0 | 0.00 | 0.18 | 0.02 | 91 | 1019.3 |
| 20260508052044 | 44 | 26 | 0.0 | 3.0 | 0.00 | 0.18 | 0.02 | 91 | 1019.3 |
| 20260508051602 | 44 | 65 | 0.0 | 2.0 | 0.00 | 0.18 | 0.02 | 91 | 1019.3 |
| 20260508051016 | 44 | 38 | 0.0 | 4.0 | 0.00 | 0.18 | 0.02 | 91 | 1019.3 |
| 20260508050544 | 44 | 23 | 0.0 | 4.0 | 0.00 | 0.18 | 0.02 | 91 | 1019.3 |
| 20260508050059 | 44 | 19 | 0.0 | 4.0 | 0.00 | 0.18 | 0.02 | 91 | 1019.2 |
| 20260508045511 | 44 | 59 | 2.0 | 4.0 | 0.00 | 0.18 | 0.02 | 91 | 1019.1 |
| 20260508045040 | 44 | 360 | 0.0 | 5.0 | 0.00 | 0.18 | 0.02 | 91 | 1019.1 |
| 20260508044603 | 44 | 73 | 3.0 | 5.0 | 0.00 | 0.18 | 0.02 | 91 | 1019.0 |
| 20260508044014 | 44 | 44 | 2.0 | 4.0 | 0.00 | 0.18 | 0.02 | 91 | 1019.1 |
| 20260508043529 | 44 | 19 | 1.0 | 4.0 | 0.00 | 0.18 | 0.02 | 91 | 1019.0 |
| 20260508043046 | 44 | 38 | 1.0 | 4.0 | 0.00 | 0.18 | 0.02 | 91 | 1018.9 |
| 20260508042510 | 44 | 360 | 1.0 | 5.0 | 0.00 | 0.18 | 0.02 | 91 | 1018.8 |
| 20260508042024 | 44 | 5 | 0.0 | 5.0 | 0.00 | 0.18 | 0.02 | 91 | 1018.8 |
| 20260508041551 | 44 | 5 | 0.0 | 4.0 | 0.00 | 0.18 | 0.02 | 91 | 1018.8 |
| 20260508041047 | 44 | 19 | 0.0 | 3.0 | 0.00 | 0.18 | 0.02 | 91 | 1018.8 |
| 20260508040503 | 44 | 42 | 0.0 | 4.0 | 0.00 | 0.18 | 0.02 | 91 | 1018.7 |
| 20260508040029 | 44 | 5 | 1.0 | 4.0 | 0.00 | 0.18 | 0.02 | 91 | 1018.6 |
| 20260508035546 | 44 | 5 | 0.0 | 5.0 | 0.00 | 0.24 | 0.02 | 91 | 1018.6 |
| 20260508035102 | 44 | 38 | 1.0 | 5.0 | 0.00 | 0.24 | 0.02 | 91 | 1018.6 |
| 20260508034525 | 44 | 5 | 2.0 | 5.0 | 0.00 | 0.24 | 0.02 | 91 | 1018.5 |
| 20260508034042 | 44 | 14 | 3.0 | 5.0 | 0.00 | 0.24 | 0.02 | 91 | 1018.6 |
| 20260508033558 | 44 | 50 | 1.0 | 4.0 | 0.00 | 0.24 | 0.02 | 91 | 1018.5 |
| 20260508033028 | 44 | 24 | 0.0 | 1.0 | 0.00 | 0.24 | 0.02 | 91 | 1018.5 |
| 20260508032536 | 44 | 350 | 0.0 | 3.0 | 0.00 | 0.24 | 0.02 | 91 | 1018.5 |
| 20260508032055 | 44 | 16 | 0.0 | 3.0 | 0.00 | 0.24 | 0.02 | 91 | 1018.4 |
| 20260508031516 | 44 | 336 | 0.0 | 4.0 | 0.00 | 0.24 | 0.02 | 91 | 1018.5 |
| 20260508031032 | 44 | 11 | 1.0 | 4.0 | 0.00 | 0.24 | 0.02 | 91 | 1018.5 |
| 20260508030550 | 44 | 60 | 0.0 | 3.0 | 0.00 | 0.24 | 0.02 | 91 | 1018.3 |
| 20260508030004 | 44 | 360 | 0.0 | 2.0 | 0.00 | 0.24 | 0.02 | 91 | 1018.5 |
| 20260508025522 | 44 | 360 | 0.0 | 2.0 | 0.00 | 0.46 | 0.02 | 91 | 1018.4 |
| 20260508025040 | 44 | 28 | 0.0 | 0.0 | 0.00 | 0.46 | 0.02 | 91 | 1018.4 |
| 20260508024605 | 44 | 28 | 0.0 | 2.0 | 0.00 | 0.46 | 0.02 | 91 | 1018.4 |
| 20260508024018 | 44 | 30 | 0.0 | 2.0 | 0.00 | 0.46 | 0.02 | 91 | 1018.4 |
| 20260508023535 | 44 | 40 | 0.0 | 3.0 | 0.00 | 0.46 | 0.02 | 91 | 1018.4 |
| 20260508023053 | 44 | 13 | 0.0 | 3.0 | 0.00 | 0.46 | 0.02 | 91 | 1018.4 |
| 20260508022516 | 44 | 67 | 1.0 | 3.0 | 0.00 | 0.46 | 0.02 | 91 | 1018.4 |
| 20260508022033 | 44 | 40 | 0.0 | 2.0 | 0.00 | 0.46 | 0.02 | 91 | 1018.4 |
| 20260508021602 | 44 | 9 | 0.0 | 2.0 | 0.00 | 0.46 | 0.02 | 91 | 1018.3 |
| 20260508021012 | 44 | 37 | 0.0 | 2.0 | 0.00 | 0.46 | 0.02 | 91 | 1018.4 |
| 20260508020529 | 44 | 65 | 0.0 | 3.0 | 0.00 | 0.46 | 0.02 | 91 | 1018.4 |
| 20260508020056 | 44 | 13 | 0.0 | 3.0 | 0.00 | 0.46 | 0.02 | 91 | 1018.3 |
| 20260508015509 | 44 | 67 | 0.0 | 2.0 | 0.00 | 0.55 | 0.02 | 91 | 1018.3 |
| 20260508015036 | 44 | 53 | 0.0 | 3.0 | 0.00 | 0.55 | 0.02 | 91 | 1018.3 |
| 20260508014554 | 44 | 32 | 0.0 | 4.0 | 0.00 | 0.55 | 0.02 | 91 | 1018.2 |
| 20260508014007 | 44 | 343 | 1.0 | 4.0 | 0.00 | 0.55 | 0.02 | 91 | 1018.2 |
| 20260508013534 | 44 | 40 | 0.0 | 4.0 | 0.00 | 0.55 | 0.02 | 91 | 1018.2 |
| 20260508013051 | 44 | 86 | 1.0 | 4.0 | 0.00 | 0.55 | 0.02 | 91 | 1018.2 |
| 20260508012506 | 44 | 22 | 0.0 | 4.0 | 0.00 | 0.55 | 0.02 | 91 | 1018.2 |
| 20260508012023 | 44 | 63 | 0.0 | 4.0 | 0.00 | 0.55 | 0.02 | 91 | 1018.1 |
| 20260508011540 | 44 | 63 | 2.0 | 4.0 | 0.00 | 0.55 | 0.02 | 91 | 1018.2 |
| 20260508011050 | 44 | 59 | 1.0 | 4.0 | 0.00 | 0.55 | 0.02 | 91 | 1018.2 |
| 20260508010502 | 44 | 61 | 0.0 | 5.0 | 0.00 | 0.55 | 0.02 | 91 | 1018.2 |
| 20260508010038 | 44 | 19 | 0.0 | 4.0 | 0.00 | 0.55 | 0.02 | 91 | 1018.2 |
| 20260508005544 | 44 | 56 | 1.0 | 4.0 | 0.00 | 0.55 | 0.02 | 91 | 1018.1 |
| 20260508005105 | 44 | 32 | 0.0 | 4.0 | 0.00 | 0.55 | 0.02 | 91 | 1018.1 |
| 20260508004525 | 44 | 41 | 1.0 | 4.0 | 0.00 | 0.55 | 0.02 | 91 | 1018.0 |
| 20260508004043 | 44 | 44 | 1.0 | 4.0 | 0.00 | 0.55 | 0.02 | 91 | 1018.1 |
| 20260508003557 | 44 | 16 | 1.0 | 4.0 | 0.00 | 0.55 | 0.02 | 91 | 1018.0 |
| 20260508003022 | 44 | 39 | 1.0 | 3.0 | 0.00 | 0.55 | 0.02 | 91 | 1018.1 |
| 20260508002536 | 44 | 25 | 0.0 | 4.0 | 0.00 | 0.55 | 0.02 | 91 | 1018.0 |
| 20260508002052 | 44 | 49 | 1.0 | 4.0 | 0.00 | 0.55 | 0.02 | 91 | 1018.1 |
| 20260508001526 | 44 | 57 | 1.0 | 5.0 | 0.00 | 0.55 | 0.02 | 91 | 1018.2 |
| 20260508001034 | 44 | 343 | 1.0 | 5.0 | 0.00 | 0.55 | 0.02 | 91 | 1018.1 |
| 20260508000551 | 44 | 360 | 3.0 | 6.0 | 0.00 | 0.55 | 0.02 | 91 | 1018.2 |
| 20260508000004 | 44 | 16 | 1.0 | 8.0 | 0.00 | 0.55 | 0.02 | 91 | 1018.1 |
| 20260507235530 | 44 | 40 | 3.0 | 8.0 | 0.00 | 0.55 | 0.02 | 91 | 1018.1 |
| 20260507235046 | 44 | 40 | 3.0 | 5.0 | 0.00 | 0.55 | 0.02 | 91 | 1018.1 |
| 20260507234501 | 44 | 13 | 1.0 | 4.0 | 0.00 | 0.55 | 0.02 | 91 | 1018.2 |
| 20260507234027 | 44 | 52 | 1.0 | 7.0 | 0.01 | 0.55 | 0.02 | 91 | 1018.3 |
| 20260507233543 | 44 | 41 | 1.0 | 7.0 | 0.01 | 0.55 | 0.02 | 91 | 1018.3 |
| 20260507233108 | 44 | 28 | 1.0 | 3.0 | 0.01 | 0.55 | 0.02 | 91 | 1018.4 |
| 20260507232523 | 44 | 343 | 0.0 | 3.0 | 0.01 | 0.55 | 0.02 | 91 | 1018.3 |
| 20260507232039 | 44 | 351 | 1.0 | 5.0 | 0.01 | 0.55 | 0.02 | 91 | 1018.4 |
| 20260507231559 | 44 | 346 | 0.0 | 5.0 | 0.01 | 0.55 | 0.02 | 91 | 1018.3 |
| 20260507231019 | 44 | 60 | 0.0 | 4.0 | 0.01 | 0.55 | 0.02 | 91 | 1018.2 |
| 20260507230541 | 44 | 40 | 1.0 | 5.0 | 0.02 | 0.55 | 0.02 | 91 | 1018.3 |
| 20260507230056 | 44 | 31 | 1.0 | 5.0 | 0.02 | 0.55 | 0.02 | 91 | 1018.3 |
| 20260507225516 | 44 | 30 | 0.0 | 4.0 | 0.02 | 0.55 | 0.02 | 91 | 1018.3 |
| 20260507225034 | 44 | 350 | 1.0 | 4.0 | 0.02 | 0.55 | 0.02 | 91 | 1018.4 |
| 20260507224606 | 44 | 16 | 0.0 | 3.0 | 0.02 | 0.55 | 0.02 | 91 | 1018.4 |
| 20260507224011 | 44 | 44 | 0.0 | 4.0 | 0.02 | 0.54 | 0.01 | 91 | 1018.4 |
| 20260507223602 | 44 | 24 | 0.0 | 4.0 | 0.02 | 0.54 | 0.01 | 91 | 1018.4 |
| 20260507223011 | 44 | 34 | 0.0 | 3.0 | 0.02 | 0.54 | 0.01 | 91 | 1018.5 |
| 20260507222538 | 44 | 38 | 0.0 | 4.0 | 0.02 | 0.54 | 0.01 | 91 | 1018.4 |
| 20260507222054 | 44 | 58 | 1.0 | 4.0 | 0.02 | 0.54 | 0.01 | 91 | 1018.3 |
| 20260507221522 | 44 | 59 | 1.0 | 4.0 | 0.02 | 0.54 | 0.01 | 91 | 1018.4 |
| 20260507221032 | 45 | 37 | 1.0 | 3.0 | 0.02 | 0.54 | 0.01 | 91 | 1018.3 |
| 20260507220550 | 45 | 55 | 0.0 | 3.0 | 0.02 | 0.54 | 0.00 | 91 | 1018.3 |
| 20260507220018 | 45 | 43 | 1.0 | 5.0 | 0.02 | 0.54 | 0.00 | 91 | 1018.3 |
| 20260507215529 | 45 | 48 | 1.0 | 5.0 | 0.02 | 0.54 | 0.54 | 91 | 1018.3 |
| 20260507215046 | 45 | 58 | 0.0 | 4.0 | 0.02 | 0.54 | 0.54 | 91 | 1018.3 |
| 20260507214602 | 45 | 59 | 1.0 | 4.0 | 0.02 | 0.54 | 0.54 | 91 | 1018.3 |
| 20260507214012 | 45 | 38 | 0.0 | 6.0 | 0.02 | 0.53 | 0.53 | 91 | 1018.3 |
| 20260507213540 | 45 | 17 | 2.0 | 6.0 | 0.02 | 0.53 | 0.53 | 91 | 1018.3 |
| 20260507213058 | 45 | 48 | 1.0 | 4.0 | 0.02 | 0.53 | 0.53 | 91 | 1018.2 |
| 20260507212512 | 45 | 35 | 0.0 | 3.0 | 0.02 | 0.52 | 0.52 | 91 | 1018.2 |
| 20260507212037 | 45 | 11 | 1.0 | 3.0 | 0.02 | 0.52 | 0.52 | 91 | 1018.2 |
| 20260507211554 | 45 | 37 | 0.0 | 5.0 | 0.02 | 0.52 | 0.52 | 91 | 1018.0 |
| 20260507211015 | 45 | 5 | 1.0 | 5.0 | 0.02 | 0.52 | 0.52 | 91 | 1018.0 |
| 20260507210533 | 45 | 50 | 1.0 | 4.0 | 0.02 | 0.52 | 0.52 | 91 | 1018.0 |
| 20260507210113 | 45 | 43 | 0.0 | 4.0 | 0.01 | 0.51 | 0.51 | 91 | 1017.9 |
| 20260507205514 | 45 | 11 | 1.0 | 6.0 | 0.01 | 0.51 | 0.51 | 91 | 1017.8 |
| 20260507205028 | 45 | 51 | 0.0 | 3.0 | 0.01 | 0.51 | 0.51 | 91 | 1017.9 |
| 20260507204552 | 45 | 36 | 0.0 | 6.0 | 0.01 | 0.51 | 0.51 | 91 | 1017.7 |
| 20260507204104 | 45 | 50 | 3.0 | 6.0 | 0.00 | 0.50 | 0.50 | 91 | 1017.8 |
| 20260507203513 | 45 | 63 | 2.0 | 6.0 | 0.00 | 0.50 | 0.50 | 91 | 1017.7 |
| 20260507203030 | 45 | 28 | 1.0 | 5.0 | 0.00 | 0.50 | 0.50 | 91 | 1017.6 |
| 20260507202550 | 45 | 360 | 1.0 | 5.0 | 0.00 | 0.50 | 0.50 | 90 | 1017.5 |
| 20260507202002 | 45 | 13 | 2.0 | 5.0 | 0.00 | 0.50 | 0.50 | 90 | 1017.4 |
| 20260507201533 | 45 | 14 | 1.0 | 3.0 | 0.00 | 0.50 | 0.50 | 90 | 1017.4 |
| 20260507201044 | 45 | 13 | 0.0 | 5.0 | 0.00 | 0.50 | 0.50 | 90 | 1017.4 |
| 20260507200601 | 45 | 19 | 2.0 | 5.0 | 0.00 | 0.50 | 0.50 | 90 | 1017.4 |
| 20260507200034 | 45 | 32 | 1.0 | 6.0 | 0.00 | 0.50 | 0.50 | 90 | 1017.2 |
| 20260507195539 | 45 | 40 | 2.0 | 8.0 | 0.00 | 0.50 | 0.50 | 90 | 1017.2 |
| 20260507195054 | 45 | 360 | 2.0 | 8.0 | 0.00 | 0.50 | 0.50 | 90 | 1017.2 |
| 20260507194517 | 45 | 46 | 1.0 | 5.0 | 0.00 | 0.50 | 0.50 | 90 | 1017.2 |
| 20260507194032 | 45 | 39 | 1.0 | 5.0 | 0.00 | 0.50 | 0.50 | 90 | 1017.2 |
| 20260507193549 | 45 | 76 | 1.0 | 5.0 | 0.00 | 0.50 | 0.50 | 90 | 1017.2 |
| 20260507193023 | 45 | 26 | 1.0 | 6.0 | 0.00 | 0.50 | 0.50 | 90 | 1017.1 |
| 20260507192530 | 45 | 38 | 2.0 | 6.0 | 0.00 | 0.50 | 0.50 | 90 | 1017.1 |
| 20260507192051 | 45 | 60 | 2.0 | 6.0 | 0.00 | 0.50 | 0.50 | 90 | 1017.1 |
| 20260507191504 | 45 | 17 | 1.0 | 8.0 | 0.00 | 0.50 | 0.50 | 90 | 1017.0 |
| 20260507191016 | 45 | 15 | 2.0 | 8.0 | 0.00 | 0.50 | 0.50 | 90 | 1017.0 |
| 20260507190537 | 45 | 22 | 2.0 | 6.0 | 0.00 | 0.50 | 0.50 | 90 | 1016.9 |
| 20260507190052 | 45 | 30 | 1.0 | 9.0 | 0.00 | 0.50 | 0.50 | 90 | 1016.9 |
| 20260507185504 | 45 | 22 | 3.0 | 9.0 | 0.00 | 0.50 | 0.50 | 90 | 1016.8 |
| 20260507185020 | 45 | 23 | 2.0 | 9.0 | 0.00 | 0.50 | 0.50 | 90 | 1016.8 |
| 20260507184538 | 45 | 34 | 3.0 | 7.0 | 0.00 | 0.50 | 0.50 | 90 | 1016.8 |
| 20260507184057 | 45 | 22 | 1.0 | 7.0 | 0.00 | 0.50 | 0.50 | 90 | 1016.6 |
| 20260507183513 | 45 | 33 | 1.0 | 5.0 | 0.00 | 0.50 | 0.50 | 90 | 1016.6 |
| 20260507183159 | 45 | 37 | 2.0 | 6.0 | 0.00 | 0.50 | 0.50 | 90 | 1016.6 |
| 20260507182501 | 45 | 5 | 1.0 | 5.0 | 0.00 | 0.50 | 0.50 | 90 | 1016.5 |
| 20260507182029 | 45 | 10 | 1.0 | 9.0 | 0.00 | 0.50 | 0.50 | 90 | 1016.4 |
| 20260507181545 | 45 | 36 | 1.0 | 9.0 | 0.00 | 0.50 | 0.50 | 90 | 1016.4 |
| 20260507181008 | 45 | 5 | 1.0 | 9.0 | 0.00 | 0.50 | 0.50 | 90 | 1016.3 |
| 20260507180526 | 45 | 32 | 2.0 | 9.0 | 0.00 | 0.50 | 0.50 | 90 | 1016.3 |
| 20260507180045 | 45 | 30 | 2.0 | 9.0 | 0.00 | 0.50 | 0.50 | 90 | 1016.3 |
| 20260507175606 | 45 | 324 | 3.0 | 9.0 | 0.00 | 0.50 | 0.50 | 90 | 1016.2 |
| 20260507175028 | 45 | 39 | 1.0 | 6.0 | 0.00 | 0.50 | 0.50 | 90 | 1016.1 |
| 20260507174545 | 46 | 360 | 2.0 | 8.0 | 0.00 | 0.50 | 0.50 | 90 | 1016.1 |
| 20260507174009 | 46 | 22 | 1.0 | 8.0 | 0.00 | 0.50 | 0.50 | 90 | 1016.1 |
| 20260507173527 | 46 | 30 | 0.0 | 5.0 | 0.00 | 0.50 | 0.50 | 90 | 1016.1 |
| 20260507173105 | 46 | 37 | 1.0 | 5.0 | 0.00 | 0.50 | 0.50 | 90 | 1016.0 |
| 20260507172501 | 46 | 53 | 0.0 | 5.0 | 0.00 | 0.50 | 0.50 | 90 | 1016.0 |
| 20260507172030 | 46 | 13 | 0.0 | 5.0 | 0.01 | 0.50 | 0.50 | 90 | 1015.9 |
| 20260507171550 | 46 | 355 | 0.0 | 5.0 | 0.01 | 0.50 | 0.50 | 90 | 1015.8 |
| 20260507171008 | 46 | 360 | 2.0 | 6.0 | 0.01 | 0.50 | 0.50 | 90 | 1015.8 |
| 20260507170527 | 46 | 355 | 2.0 | 6.0 | 0.01 | 0.50 | 0.50 | 90 | 1015.8 |
| 20260507170048 | 46 | 51 | 1.0 | 6.0 | 0.01 | 0.50 | 0.50 | 90 | 1015.7 |
| 20260507165508 | 46 | 355 | 1.0 | 6.0 | 0.01 | 0.50 | 0.50 | 90 | 1015.6 |
| 20260507165029 | 46 | 47 | 1.0 | 6.0 | 0.01 | 0.50 | 0.50 | 89 | 1015.5 |
| 20260507164554 | 46 | 48 | 1.0 | 6.0 | 0.01 | 0.50 | 0.50 | 89 | 1015.5 |
| 20260507164004 | 46 | 304 | 2.0 | 8.0 | 0.01 | 0.50 | 0.50 | 89 | 1015.5 |
| 20260507163531 | 47 | 350 | 3.0 | 8.0 | 0.01 | 0.50 | 0.50 | 90 | 1015.5 |
| 20260507163050 | 47 | 343 | 1.0 | 6.0 | 0.01 | 0.50 | 0.50 | 90 | 1015.3 |
| 20260507162504 | 47 | 10 | 0.0 | 4.0 | 0.00 | 0.50 | 0.50 | 90 | 1015.4 |
| 20260507162025 | 47 | 5 | 1.0 | 6.0 | 0.00 | 0.50 | 0.50 | 90 | 1015.4 |
| 20260507161603 | 47 | 17 | 0.0 | 6.0 | 0.01 | 0.50 | 0.50 | 90 | 1015.4 |
| 20260507161004 | 47 | 26 | 3.0 | 6.0 | 0.02 | 0.50 | 0.50 | 90 | 1015.4 |
| 20260507160532 | 47 | 19 | 1.0 | 9.0 | 0.02 | 0.50 | 0.50 | 90 | 1015.4 |
| 20260507155509 | 47 | 40 | 2.0 | 8.0 | 0.04 | 0.50 | 0.50 | 90 | 1015.3 |
| 20260507155025 | 47 | 329 | 2.0 | 8.0 | 0.04 | 0.50 | 0.50 | 90 | 1015.3 |
| 20260507154545 | 47 | 19 | 1.0 | 6.0 | 0.05 | 0.50 | 0.50 | 90 | 1015.3 |
| 20260507154001 | 47 | 5 | 2.0 | 9.0 | 0.05 | 0.50 | 0.50 | 90 | 1015.3 |
| 20260507153529 | 47 | 355 | 4.0 | 9.0 | 0.06 | 0.50 | 0.50 | 90 | 1015.3 |
| 20260507153049 | 47 | 341 | 2.0 | 9.0 | 0.06 | 0.50 | 0.50 | 90 | 1015.2 |
| 20260507152506 | 47 | 36 | 3.0 | 9.0 | 0.06 | 0.50 | 0.50 | 90 | 1015.2 |
| 20260507152026 | 47 | 42 | 2.0 | 10.0 | 0.06 | 0.50 | 0.50 | 89 | 1015.2 |
| 20260507151545 | 47 | 20 | 4.0 | 10.0 | 0.05 | 0.49 | 0.49 | 90 | 1015.2 |
| 20260507151001 | 47 | 46 | 3.0 | 7.0 | 0.04 | 0.48 | 0.48 | 90 | 1015.2 |
| 20260507150530 | 47 | 86 | 1.0 | 4.0 | 0.03 | 0.47 | 0.47 | 90 | 1015.2 |
| 20260507150049 | 47 | 65 | 0.0 | 5.0 | 0.02 | 0.46 | 0.46 | 89 | 1015.1 |
| 20260507145507 | 47 | 52 | 2.0 | 5.0 | 0.02 | 0.46 | 0.46 | 89 | 1015.1 |
| 20260507145029 | 47 | 36 | 2.0 | 5.0 | 0.02 | 0.46 | 0.46 | 88 | 1015.1 |
| 20260507144555 | 47 | 42 | 1.0 | 5.0 | 0.01 | 0.45 | 0.45 | 88 | 1015.1 |
| 20260507144059 | 47 | 23 | 1.0 | 8.0 | 0.01 | 0.45 | 0.45 | 88 | 1015.2 |
| 20260507143516 | 47 | 23 | 3.0 | 8.0 | 0.00 | 0.44 | 0.44 | 88 | 1015.1 |
| 20260507143037 | 47 | 21 | 1.0 | 4.0 | 0.00 | 0.44 | 0.44 | 88 | 1015.2 |
| 20260507142557 | 47 | 64 | 1.0 | 4.0 | 0.00 | 0.44 | 0.44 | 88 | 1015.1 |
| 20260507142013 | 47 | 82 | 1.0 | 6.0 | 0.00 | 0.44 | 0.44 | 88 | 1015.0 |
| 20260507141532 | 47 | 59 | 2.0 | 9.0 | 0.00 | 0.44 | 0.44 | 88 | 1015.1 |
| 20260507141052 | 47 | 65 | 1.0 | 9.0 | 0.00 | 0.44 | 0.44 | 88 | 1015.0 |
| 20260507140512 | 47 | 17 | 4.0 | 9.0 | 0.00 | 0.44 | 0.44 | 88 | 1014.9 |
| 20260507140032 | 47 | 41 | 3.0 | 9.0 | 0.00 | 0.44 | 0.44 | 88 | 1015.0 |
| 20260507135550 | 47 | 59 | 3.0 | 8.0 | 0.00 | 0.44 | 0.44 | 88 | 1014.9 |
| 20260507135013 | 47 | 44 | 2.0 | 9.0 | 0.00 | 0.44 | 0.44 | 88 | 1014.9 |
| 20260507134532 | 47 | 75 | 4.0 | 9.0 | 0.00 | 0.44 | 0.44 | 88 | 1014.8 |
| 20260507134050 | 47 | 44 | 2.0 | 8.0 | 0.00 | 0.44 | 0.44 | 88 | 1014.7 |
| 20260507133508 | 47 | 67 | 4.0 | 9.0 | 0.00 | 0.44 | 0.44 | 88 | 1014.7 |
| 20260507133035 | 47 | 61 | 3.0 | 9.0 | 0.00 | 0.44 | 0.44 | 88 | 1014.6 |
| 20260507132554 | 47 | 57 | 2.0 | 7.0 | 0.00 | 0.44 | 0.44 | 88 | 1014.5 |
| 20260507132020 | 47 | 88 | 3.0 | 7.0 | 0.00 | 0.44 | 0.44 | 88 | 1014.5 |
| 20260507131539 | 47 | 39 | 2.0 | 7.0 | 0.00 | 0.44 | 0.44 | 87 | 1014.5 |
| 20260507131005 | 47 | 57 | 1.0 | 11.0 | 0.00 | 0.44 | 0.44 | 87 | 1014.5 |
| 20260507130532 | 47 | 57 | 5.0 | 11.0 | 0.00 | 0.44 | 0.44 | 87 | 1014.5 |
| 20260507130050 | 47 | 48 | 2.0 | 8.0 | 0.00 | 0.44 | 0.44 | 87 | 1014.4 |
| 20260507125508 | 47 | 333 | 3.0 | 11.0 | 0.00 | 0.44 | 0.44 | 87 | 1014.2 |
| 20260507125031 | 47 | 26 | 4.0 | 11.0 | 0.00 | 0.44 | 0.44 | 87 | 1014.2 |
| 20260507124547 | 48 | 29 | 1.0 | 9.0 | 0.00 | 0.44 | 0.44 | 87 | 1014.2 |
| 20260507124003 | 48 | 51 | 3.0 | 9.0 | 0.00 | 0.44 | 0.44 | 87 | 1014.1 |
| 20260507123527 | 48 | 13 | 3.0 | 6.0 | 0.00 | 0.44 | 0.44 | 88 | 1014.1 |
| 20260507123047 | 47 | 46 | 2.0 | 11.0 | 0.00 | 0.44 | 0.44 | 87 | 1014.0 |
| 20260507122502 | 48 | 355 | 3.0 | 8.0 | 0.00 | 0.44 | 0.44 | 88 | 1014.0 |
| 20260507122024 | 48 | 17 | 3.0 | 9.0 | 0.00 | 0.44 | 0.44 | 87 | 1014.0 |
| 20260507121539 | 48 | 339 | 3.0 | 9.0 | 0.00 | 0.44 | 0.44 | 87 | 1013.9 |
| 20260507121058 | 48 | 73 | 5.0 | 9.0 | 0.00 | 0.44 | 0.44 | 87 | 1013.9 |
| 20260507120514 | 48 | 51 | 1.0 | 5.0 | 0.00 | 0.44 | 0.44 | 88 | 1013.8 |
| 20260507120034 | 48 | 5 | 2.0 | 8.0 | 0.00 | 0.44 | 0.44 | 88 | 1013.8 |
| 20260507115554 | 48 | 86 | 2.0 | 8.0 | 0.00 | 0.45 | 0.44 | 88 | 1013.7 |
| 20260507115012 | 48 | 81 | 3.0 | 9.0 | 0.00 | 0.45 | 0.44 | 89 | 1013.8 |
| 20260507114548 | 47 | 5 | 4.0 | 9.0 | 0.01 | 0.45 | 0.44 | 89 | 1013.8 |
| 20260507114006 | 47 | 35 | 2.0 | 8.0 | 0.01 | 0.45 | 0.44 | 89 | 1013.9 |
| 20260507113524 | 47 | 26 | 2.0 | 8.0 | 0.02 | 0.45 | 0.44 | 89 | 1013.9 |
| 20260507113044 | 47 | 13 | 3.0 | 8.0 | 0.02 | 0.45 | 0.44 | 89 | 1013.9 |
| 20260507112503 | 47 | 19 | 3.0 | 8.0 | 0.02 | 0.45 | 0.44 | 89 | 1013.8 |
| 20260507112025 | 47 | 360 | 3.0 | 8.0 | 0.02 | 0.45 | 0.44 | 89 | 1013.8 |
| 20260507111552 | 47 | 27 | 1.0 | 6.0 | 0.02 | 0.45 | 0.44 | 89 | 1013.7 |
| 20260507111008 | 47 | 32 | 1.0 | 7.0 | 0.02 | 0.45 | 0.44 | 89 | 1013.6 |
| 20260507110527 | 47 | 51 | 3.0 | 7.0 | 0.02 | 0.45 | 0.44 | 90 | 1013.6 |
| 20260507110044 | 47 | 355 | 3.0 | 5.0 | 0.02 | 0.45 | 0.44 | 90 | 1013.6 |
| 20260507105500 | 47 | 44 | 1.0 | 5.0 | 0.02 | 0.45 | 0.44 | 90 | 1013.6 |
| 20260507105030 | 46 | 24 | 2.0 | 6.0 | 0.03 | 0.45 | 0.44 | 90 | 1013.6 |
| 20260507104550 | 46 | 30 | 2.0 | 8.0 | 0.02 | 0.44 | 0.43 | 89 | 1013.7 |
| 20260507104006 | 46 | 57 | 2.0 | 7.0 | 0.02 | 0.44 | 0.43 | 90 | 1013.6 |
| 20260507103526 | 46 | 15 | 3.0 | 8.0 | 0.02 | 0.43 | 0.43 | 90 | 1013.4 |
| 20260507103043 | 46 | 22 | 3.0 | 7.0 | 0.02 | 0.43 | 0.43 | 90 | 1013.4 |
| 20260507102502 | 46 | 25 | 3.0 | 8.0 | 0.02 | 0.43 | 0.43 | 90 | 1013.4 |
| 20260507102017 | 46 | 69 | 3.0 | 9.0 | 0.02 | 0.43 | 0.43 | 90 | 1013.4 |
| 20260507101558 | 46 | 9 | 2.0 | 9.0 | 0.01 | 0.43 | 0.42 | 90 | 1013.5 |
| 20260507101002 | 46 | 24 | 2.0 | 6.0 | 0.01 | 0.43 | 0.42 | 90 | 1013.4 |
| 20260507100527 | 46 | 40 | 1.0 | 4.0 | 0.01 | 0.43 | 0.42 | 89 | 1013.3 |
| 20260507100047 | 46 | 16 | 1.0 | 5.0 | 0.01 | 0.43 | 0.42 | 89 | 1013.3 |
| 20260507095550 | 46 | 10 | 1.0 | 5.0 | 0.01 | 0.43 | 0.42 | 89 | 1013.3 |
| 20260507095006 | 46 | 49 | 0.0 | 5.0 | 0.00 | 0.42 | 0.41 | 89 | 1013.2 |
| 20260507094526 | 45 | 355 | 0.0 | 5.0 | 0.00 | 0.42 | 0.41 | 89 | 1013.1 |
| 20260507094046 | 45 | 29 | 2.0 | 5.0 | 0.00 | 0.42 | 0.41 | 89 | 1013.2 |
| 20260507093508 | 45 | 5 | 1.0 | 6.0 | 0.00 | 0.42 | 0.41 | 89 | 1013.1 |
| 20260507093039 | 46 | 22 | 2.0 | 8.0 | 0.00 | 0.42 | 0.41 | 89 | 1012.9 |
| 20260507092548 | 45 | 66 | 4.0 | 9.0 | 0.00 | 0.42 | 0.41 | 89 | 1012.9 |
| 20260507092004 | 45 | 36 | 5.0 | 10.0 | 0.00 | 0.42 | 0.41 | 88 | 1012.9 |
| 20260507091523 | 46 | 59 | 4.0 | 10.0 | 0.00 | 0.42 | 0.41 | 89 | 1012.7 |
| 20260507091041 | 46 | 71 | 2.0 | 6.0 | 0.00 | 0.42 | 0.41 | 89 | 1012.7 |
| 20260507090558 | 46 | 55 | 2.0 | 5.0 | 0.00 | 0.42 | 0.41 | 89 | 1012.6 |
| 20260507090016 | 46 | 30 | 1.0 | 6.0 | 0.00 | 0.42 | 0.41 | 89 | 1012.6 |
| 20260507085538 | 46 | 345 | 1.0 | 5.0 | 0.00 | 0.42 | 0.41 | 89 | 1012.5 |
| 20260507085055 | 45 | 58 | 1.0 | 5.0 | 0.00 | 0.42 | 0.41 | 89 | 1012.5 |
| 20260507084522 | 45 | 35 | 0.0 | 3.0 | 0.00 | 0.42 | 0.41 | 89 | 1012.4 |
| 20260507084040 | 45 | 50 | 0.0 | 6.0 | 0.00 | 0.42 | 0.41 | 89 | 1012.4 |
| 20260507083600 | 45 | 340 | 2.0 | 9.0 | 0.00 | 0.42 | 0.41 | 89 | 1012.4 |
| 20260507083021 | 45 | 69 | 4.0 | 8.0 | 0.00 | 0.42 | 0.41 | 90 | 1012.4 |
| 20260507082536 | 45 | 355 | 2.0 | 6.0 | 0.01 | 0.42 | 0.41 | 90 | 1012.4 |
| 20260507082056 | 45 | 5 | 0.0 | 5.0 | 0.01 | 0.42 | 0.41 | 90 | 1012.2 |
| 20260507081533 | 45 | 51 | 2.0 | 7.0 | 0.01 | 0.42 | 0.41 | 90 | 1012.2 |
| 20260507081041 | 45 | 38 | 3.0 | 8.0 | 0.02 | 0.42 | 0.41 | 90 | 1012.2 |
| 20260507080601 | 45 | 55 | 1.0 | 5.0 | 0.02 | 0.42 | 0.41 | 90 | 1012.1 |
| 20260507080021 | 45 | 47 | 2.0 | 6.0 | 0.02 | 0.42 | 0.41 | 90 | 1012.1 |
| 20260507075549 | 45 | 61 | 3.0 | 7.0 | 0.02 | 0.42 | 0.41 | 90 | 1012.1 |
| 20260507075005 | 45 | 20 | 3.0 | 6.0 | 0.03 | 0.42 | 0.41 | 90 | 1012.0 |
| 20260507074523 | 45 | 45 | 2.0 | 5.0 | 0.03 | 0.42 | 0.41 | 90 | 1012.0 |
| 20260507074043 | 45 | 37 | 1.0 | 7.0 | 0.03 | 0.42 | 0.41 | 90 | 1011.9 |
| 20260507073509 | 45 | 61 | 3.0 | 9.0 | 0.03 | 0.42 | 0.41 | 90 | 1011.8 |
| 20260507073027 | 45 | 42 | 4.0 | 9.0 | 0.03 | 0.42 | 0.41 | 90 | 1011.8 |
| 20260507072547 | 45 | 5 | 3.0 | 6.0 | 0.03 | 0.41 | 0.40 | 90 | 1011.7 |
| 20260507072004 | 45 | 44 | 2.0 | 5.0 | 0.03 | 0.41 | 0.40 | 90 | 1011.5 |
| 20260507071526 | 45 | 360 | 2.0 | 5.0 | 0.02 | 0.40 | 0.39 | 90 | 1011.4 |
| 20260507071040 | 45 | 44 | 1.0 | 5.0 | 0.02 | 0.40 | 0.39 | 90 | 1011.3 |
| 20260507070505 | 45 | 22 | 1.0 | 6.0 | 0.02 | 0.40 | 0.39 | 90 | 1011.3 |
| 20260507070022 | 45 | 64 | 2.0 | 6.0 | 0.02 | 0.39 | 0.39 | 90 | 1011.3 |
| 20260507065551 | 45 | 58 | 4.0 | 6.0 | 0.02 | 0.39 | 0.39 | 90 | 1011.2 |
| 20260507065008 | 45 | 54 | 3.0 | 8.0 | 0.01 | 0.39 | 0.38 | 90 | 1011.2 |
| 20260507064542 | 45 | 34 | 3.0 | 9.0 | 0.01 | 0.39 | 0.38 | 90 | 1011.0 |
| 20260507064056 | 45 | 26 | 1.0 | 9.0 | 0.01 | 0.39 | 0.38 | 90 | 1011.0 |
| 20260507063520 | 45 | 73 | 2.0 | 6.0 | 0.01 | 0.39 | 0.38 | 90 | 1011.0 |
| 20260507063037 | 45 | 18 | 3.0 | 5.0 | 0.01 | 0.39 | 0.38 | 90 | 1010.9 |
| 20260507062555 | 45 | 49 | 2.0 | 5.0 | 0.00 | 0.38 | 0.37 | 90 | 1010.8 |
| 20260507062023 | 45 | 35 | 1.0 | 6.0 | 0.00 | 0.38 | 0.37 | 90 | 1010.7 |
| 20260507061542 | 45 | 355 | 1.0 | 6.0 | 0.00 | 0.38 | 0.37 | 90 | 1010.7 |
| 20260507061100 | 45 | 12 | 2.0 | 8.0 | 0.00 | 0.38 | 0.37 | 90 | 1010.7 |
| 20260507060520 | 45 | 32 | 2.0 | 8.0 | 0.00 | 0.38 | 0.37 | 90 | 1010.6 |